Massena, NY

5:37 AM EDT on September 17, 2019 (GMT -0400)
Massena International-Richards

Weather History for KMSS - July, 2019

Change the Weather History Date:

Saturday, July 20, 2019

  Actual Average Record
Temperature  
Mean Temperature 76 °F 69 °F  
Max Temperature 89 °F 80 °F 93 °F (1991)
Min Temperature 63 °F 58 °F 42 °F (1970)
Degree Days  
Heating Degree Days 0 1  
Month to date heating degree days 0 19  
Since 1 June heating degree days 97 115  
Since 1 July heating degree days 0 19  
Cooling Degree Days 11 5  
Month to date cooling degree days 135 92  
Year to date cooling degree days 194 181  
Since 1 June cooling degree days 193 167  
Growing Degree Days 32 (Base 50)    
Moisture  
Dew Point 72 °F    
Average Humidity 77    
Maximum Humidity 93    
Minimum Humidity 61    
Precipitation  
Precipitation 0.00 in 0.12 in 1.20 in (2007)
Month to date precipitation 1.06 2.13  
Year to date precipitation 15.55 17.58  
Sea Level Pressure  
Sea Level Pressure 29.73 in    
Wind  
Wind Speed 11 mph (SW)    
Max Wind Speed 21 mph    
Max Gust Speed 28 mph    
Visibility 10 miles    
Events Thunderstorm    
T = Trace of Precipitation, MM = Missing Value Source: NWS Daily Summary

Daily Weather History Graph

Daily Weather History Graph

Search for Another Location

Airport or City:

Astronomy

Jul. 20, 2019 Rise Set
Actual Time 5:31 AM EDT 8:39 PM EDT
Civil Twilight 4:56 AM EDT 9:14 PM EDT
Nautical Twilight 4:10 AM EDT 9:59 PM EDT
Astronomical Twilight 3:15 AM EDT 10:54 PM EDT
Moon 10:57 PM EDT (7/20) 8:59 AM EDT (7/20)
Length of Visible Light 16h 17m
Length of Day
15h 07m
Waning Gibbous, 87% of the Moon is Illuminated
Jul 20
Waning Gibbous
Jul 24
Last Quarter
Jul 31
New
Aug 7
First Quarter
Aug 15
Full

Hourly Weather History & Observations

Time (EDT) Temp. Heat Index Dew Point Humidity Pressure Visibility Wind Dir Wind Speed Gust Speed Precip Events Conditions
12:53 AM 75.9 °F - 70.0 °F 82% 29.76 in 10.0 mi SW 10.4 mph - N/A   Clear
1:53 AM 75.0 °F - 70.0 °F 84% 29.75 in 10.0 mi SW 12.7 mph - N/A   Clear
2:53 AM 73.0 °F - 69.1 °F 87% 29.75 in 10.0 mi SW 9.2 mph - N/A   Clear
3:53 AM 73.9 °F - 70.0 °F 87% 29.76 in 10.0 mi SW 6.9 mph - N/A   Clear
4:53 AM 73.0 °F - 70.0 °F 90% 29.77 in 10.0 mi SW 8.1 mph - N/A   Clear
5:53 AM 73.9 °F - 71.1 °F 91% 29.78 in 10.0 mi SW 9.2 mph - N/A   Clear
6:48 AM 75.2 °F - 71.6 °F 89% 29.79 in 8.0 mi SW 10.4 mph - N/A   Partly Cloudy
6:53 AM 75.0 °F - 72.0 °F 90% 29.79 in 9.0 mi SW 9.2 mph - N/A   Clear
7:05 AM 75.0 °F - 72.0 °F 90% 29.80 in 9.0 mi SW 10.4 mph - N/A   Partly Cloudy
7:53 AM 77.0 °F - 73.0 °F 88% 29.81 in 10.0 mi SW 8.1 mph - N/A   Clear
8:53 AM 79.0 °F - 72.0 °F 79% 29.80 in 10.0 mi SW 8.1 mph - N/A   Clear
9:53 AM 82.0 °F 87.4 °F 73.0 °F 74% 29.78 in 10.0 mi SSW 9.2 mph - N/A   Scattered Clouds
10:53 AM 84.0 °F 90.2 °F 73.0 °F 69% 29.77 in 10.0 mi SW 9.2 mph - N/A   Clear
11:53 AM 88.0 °F 95.6 °F 73.0 °F 61% 29.76 in 10.0 mi SSW 11.5 mph - N/A   Clear
12:53 PM 89.1 °F 97.0 °F 73.0 °F 59% 29.73 in 10.0 mi SW 15.0 mph - N/A   Clear
1:53 PM 89.1 °F 100.2 °F 75.9 °F 65% 29.71 in 10.0 mi SW 12.7 mph - N/A   Scattered Clouds
2:36 PM 90.0 °F 101.3 °F 75.9 °F 63% 29.71 in 10.0 mi SSW 18.4 mph 27.6 mph N/A   Mostly Cloudy
2:43 PM 89.1 °F 100.2 °F 75.9 °F 65% 29.71 in 10.0 mi SSW 17.3 mph 26.5 mph N/A   Mostly Cloudy
2:53 PM 90.0 °F 102.5 °F 77.0 °F 65% 29.69 in 10.0 mi SSW 19.6 mph 26.5 mph N/A   Mostly Cloudy
3:53 PM 89.1 °F 100.2 °F 75.9 °F 65% 29.68 in 10.0 mi SSW 15.0 mph 28.8 mph N/A   Clear
4:53 PM 87.1 °F 97.3 °F 75.9 °F 69% 29.68 in 10.0 mi SSW 15.0 mph 25.3 mph N/A   Partly Cloudy
5:53 PM 84.9 °F 93.3 °F 75.0 °F 72% 29.71 in 10.0 mi SW 9.2 mph - N/A   Clear
6:53 PM 80.1 °F 82.7 °F 68.0 °F 67% 29.73 in 10.0 mi North 12.7 mph 26.5 mph N/A Thunderstorm Thunderstorm
6:59 PM 79.0 °F - 66.9 °F 66% 29.72 in 10.0 mi North 12.7 mph 23.0 mph N/A Thunderstorm Thunderstorm
7:14 PM 78.1 °F - 66.9 °F 68% 29.73 in 10.0 mi NNE 10.4 mph - N/A   Overcast
7:34 PM 78.1 °F - 68.0 °F 71% 29.70 in 10.0 mi SSE 4.6 mph - N/A   Scattered Clouds
7:53 PM 79.0 °F - 69.1 °F 72% 29.68 in 10.0 mi South 5.8 mph - N/A   Clear
8:53 PM 75.9 °F - 70.0 °F 82% 29.67 in 10.0 mi SSW 5.8 mph - N/A   Clear
9:53 PM 82.0 °F 87.9 °F 73.9 °F 76% 29.69 in 10.0 mi SW 11.5 mph - N/A   Clear
10:53 PM 81.0 °F 85.8 °F 73.0 °F 77% 29.69 in 10.0 mi SW 11.5 mph - N/A   Clear
11:53 PM 79.0 °F - 72.0 °F 79% 29.68 in 10.0 mi SW 8.1 mph - N/A   Clear